TimeCDT,TemperatureF,Dew PointF,Humidity,Sea Level PressureIn,VisibilityMPH,Wind Direction,Wind SpeedMPH,Gust SpeedMPH,PrecipitationIn,Events,Conditions,WindDirDegrees,DateUTC
12:53 AM,78.1,72.0,81,30.20,10.0,SE,3.5,-,N/A,,Clear,130,2013-07-17 05:53:00
1:53 AM,79.0,72.0,79,30.20,10.0,Calm,Calm,-,N/A,,Clear,0,2013-07-17 06:53:00
2:53 AM,75.9,72.0,87,30.20,10.0,Calm,Calm,-,N/A,,Clear,0,2013-07-17 07:53:00
3:53 AM,75.9,72.0,87,30.21,10.0,Calm,Calm,-,N/A,,Clear,0,2013-07-17 08:53:00
4:53 AM,75.0,71.1,87,30.22,10.0,Calm,Calm,-,N/A,,Partly Cloudy,0,2013-07-17 09:53:00
5:53 AM,75.0,70.0,84,30.22,10.0,Calm,Calm,-,N/A,,Clear,0,2013-07-17 10:53:00
6:53 AM,77.0,71.1,82,30.23,10.0,Calm,Calm,-,N/A,,Clear,0,2013-07-17 11:53:00
7:53 AM,81.0,70.0,69,30.23,10.0,Calm,Calm,-,N/A,,Clear,0,2013-07-17 12:53:00
8:53 AM,82.9,69.1,63,30.24,10.0,SW,5.8,-,N/A,,Clear,230,2013-07-17 13:53:00
9:53 AM,86.0,69.1,57,30.23,10.0,WSW,9.2,-,N/A,,Clear,240,2013-07-17 14:53:00
10:53 AM,88.0,69.1,53,30.22,10.0,SW,9.2,-,N/A,,Scattered Clouds,230,2013-07-17 15:53:00
11:53 AM,89.1,68.0,50,30.22,10.0,West,10.4,-,N/A,,Clear,280,2013-07-17 16:53:00
12:53 PM,91.0,69.1,48,30.21,10.0,WSW,12.7,-,N/A,,Partly Cloudy,240,2013-07-17 17:53:00
1:53 PM,91.0,68.0,47,30.20,10.0,West,10.4,17.3,N/A,,Mostly Cloudy,260,2013-07-17 18:53:00
2:53 PM,91.9,69.1,47,30.18,10.0,SW,10.4,18.4,N/A,,Scattered Clouds,220,2013-07-17 19:53:00
3:53 PM,91.0,69.1,48,30.16,10.0,SW,10.4,-,N/A,,Partly Cloudy,220,2013-07-17 20:53:00
4:53 PM,89.1,68.0,50,30.16,10.0,SW,11.5,-,N/A,,Scattered Clouds,220,2013-07-17 21:53:00
5:53 PM,91.0,68.0,47,30.14,10.0,SW,11.5,-,N/A,,Clear,220,2013-07-17 22:53:00
6:53 PM,90.0,68.0,48,30.12,10.0,WSW,8.1,-,N/A,,Clear,240,2013-07-17 23:53:00
7:53 PM,88.0,70.0,55,30.11,10.0,SW,5.8,-,N/A,,Scattered Clouds,220,2013-07-18 00:53:00
8:53 PM,84.9,71.1,63,30.11,10.0,South,3.5,-,N/A,,Clear,190,2013-07-18 01:53:00
9:53 PM,81.0,71.1,72,30.11,10.0,South,4.6,-,N/A,,Clear,170,2013-07-18 02:53:00
10:53 PM,78.1,73.0,84,30.10,10.0,SSE,5.8,-,N/A,,Clear,150,2013-07-18 03:53:00
11:53 PM,78.1,73.0,84,30.09,10.0,SSE,5.8,-,N/A,,Clear,150,2013-07-18 04:53:00